Regional Weather Roundup
Issued by NWS Memphis, TN

Home | Current Version | Previous Version | Text Only | Print | Product List | Glossary On
Versions: 1 2 3 4 5 6 7 8 9 10 11 12 13 14 15 16 17 18 19 20 21 22 23 24 25 26 27 28 29 30 31 32 33 34 35 36 37 38 39 40 41 42 43 44 45 46 47 48 49 50
000
ASUS44 KMEG 081010
RWRMEG
MEMPHIS CWA HOURLY WEATHER ROUNDUP
NATIONAL WEATHER SERVICE MEMPHIS TN
400 AM CST THU DEC 08 2016

...WEST TENNESSEE...

CITY           SKY/WX    TMP DP  RH WIND       PRES   REMARKS
MEMPHIS INTL   CLOUDY    39  25  57 N12       30.37R WCI  32
NWS MEMPHIS      N/A     38 N/A N/A MISG        N/A
JACKSON        PTCLDY    36  25  64 NW6       30.36R WCI  31
BOLIVAR        CLOUDY    37  25  60 NW6G13    30.35R WCI  33
LEXINGTON      PTCLDY    36  19  51 N7        30.32R WCI  30
DYERSBURG      CLOUDY    36  25  64 N12       30.37S WCI  27
UNION CITY     CLOUDY    34  25  69 NW10      30.35S WCI  26
PARIS          PTCLDY    30  19  64 N7        30.33S WCI  23
HUNTINGDON     PTCLDY    36  25  64 N6        30.34R WCI  31


...EASTERN ARKANSAS...

CITY           SKY/WX    TMP DP  RH WIND       PRES   REMARKS
JONESBORO      CLOUDY    36  25  64 NW9       30.41R WCI  29
WEST MEMPHIS   CLOUDY    37  26  64 N9        30.38R WCI  30
BATESVILLE     MOCLDY    34  23  64 NW7       30.45R WCI  28
NEWPORT        PTCLDY    34  26  72 NW15      30.43  WCI  24
WALNUT RIDGE   CLOUDY    34  21  60 NW14      30.43R WCI  24
BLYTHEVILLE    CLOUDY    36  29  75 N9        30.40R WCI  29
SEARCY         PTCLDY    36  26  67 N9        30.44R WCI  29
STUTTGART      CLOUDY    39  25  56 N12       30.41S WCI  32
PINE BLUFF     CLOUDY    39  26  59 N13       30.41R WCI  31
MONTICELLO     CLOUDY    41  28  60 N6        30.38R


...NORTH MISSISSIPPI...

CITY           SKY/WX    TMP DP  RH WIND       PRES   REMARKS
TUPELO         CLOUDY    41  28  60 NW7       30.31R
OXFORD         CLOUDY    37  27  65 N10G18    30.36R WCI  30
BATESVILLE     CLOUDY    40  27  59 N10       30.36R WCI  33
TUNICA         CLOUDY    37  28  70 N13G18    30.39R WCI  29
CLARKSDALE     CLOUDY    41  30  65 N20       30.38R
CORINTH        CLOUDY    39  25  56 N9        30.32R WCI  33
GREENWOOD      CLOUDY    43  33  68 N7        30.32R
COLUMBUS       CLOUDY    42  35  77 NW8       30.29R
STARKVILLE     CLOUDY    41  36  81 N5        30.31R
GOLDEN TRIANGL CLOUDY    43  32  65 N8        30.25R


...SOUTHEAST MISSOURI...

CITY           SKY/WX    TMP DP  RH WIND       PRES   REMARKS
KENNETT        CLOUDY    36  27  69 NW9G17    30.39R WCI  29
WEST PLAINS    CLEAR     23  15  71 NW10      30.43S WCI  12
POPLAR BLUFF   MOCLDY    30  19  63 NW10G21   30.41R WCI  21
CAPE GIRARDEAU PTCLDY    29  19  66 NW12      30.40R WCI  19


...NORTHWEST ALABAMA...

CITY           SKY/WX    TMP DP  RH WIND       PRES   REMARKS
MUSCLE SHOALS  CLOUDY    41  25  53 N8        30.29S


...MIDDLE TENNESSEE...

CITY           SKY/WX    TMP DP  RH WIND       PRES   REMARKS
NASHVILLE      CLOUDY    36  20  52 NW8       30.31R WCI  30
CLARKSVILLE    PTCLDY    33  22  63 NW6       30.33R WCI  28
COLUMBIA       CLOUDY    37  23  56 N7        30.28R WCI  32


...WESTERN KENTUCKY...

CITY           SKY/WX    TMP DP  RH WIND       PRES   REMARKS
PADUCAH        CLOUDY    32  21  64 NW10      30.36R WCI  24
FORT CAMPBELL  CLOUDY    33  21  63 NW5       30.32R WCI  28


...CENTRAL ARKANSAS...

CITY           SKY/WX    TMP DP  RH WIND       PRES   REMARKS
LITTLE ROCK    CLOUDY    37  25  61 N10       30.43R WCI  30


SKY/WX REPORTED AS FAIR MEANS FEW OR NO CLOUDS BELOW
12 THOUSAND FEET.





USA.gov is the U.S. government's official web portal to all federal, state and local government web resources and services.